Location: Heidgraben
(53.7081°N, 9.6576°E)
Time: 08:49:32
(UTC+00:00)

Cosmos 44 - Pass Details

Date: 05 July 2020
Orbit: 586 x 776 km, 65.1° (Epoch: 14 August)

Event Time Altitude Azimuth Distance (km) Brightness Sun altitude
Exits shadow 23:43:42 14° 224° (SW) 1,665 4.8 -13.5°
Maximum altitude 23:47:22 87° 311° (NW) 612 3.0 -13.5°
Drops below altitude 10° 23:51:53 10° 44° (NE) 2,004 6.5 -13.4°
Sets 23:54:13 0° 45° (NE) 2,942 7.4 -13.4°
